Location: Les Salelles
(44.4192°N, 4.1044°E)
Time: 16:39:45
(UTC+00:00)

Cosmos 1680 Rocket - Pass Details

Date: 20 January 2021
Orbit: 760 x 780 km, 74.1° (Epoch: 27 February)

Event Time Altitude Azimuth Distance (km) Brightness Sun altitude
Rises 18:17:12 0° 343° (NNW) 3,250 6.8 -17.7°
Reaches altitude 10° 18:19:41 10° 350° (N) 2,316 6.0 -18.2°
Maximum altitude 18:24:44 46° 64° (ENE) 1,025 3.7 -19.0°
Enters shadow 18:26:39 32° 114° (ESE) 1,293 4.2 -19.4°
